Location: Tamazert
(32.6352°N, 5.2072°W)
Time: 23:35:50
(UTC+00:00)

Altair - Pass Details

Date: 06 October 2022
Orbit: 1501 x 1682 km, 47.2° (Epoch: 05 December)

Event Time Altitude Azimuth Distance (km) Brightness Sun altitude
Exits shadow 03:21:46 69° 153° (SSE) 1,684 7.5 -37.4°
Maximum altitude 03:22:11 69° 137° (SE) 1,679 7.5 -37.3°
Drops below altitude 10° 03:31:57 10° 56° (NE) 3,874 10.3 -35.4°
Sets 03:35:09 0° 54° (NE) 4,884 11.1 -34.7°
